FENGYUN 1C DEB, 31364

Orbit data source: Space-Track

FENGYUN 1C DEB, 31364 is space debris in SSO originally from a launch on Mon, 10 May 1999 UTC launched from the Taiyaun Space Center, China (TSC). Fengyun 1C debris stems from the Chinese weather satellite Fengyun-1C, which was intentionally destroyed by a Chinese anti-satellite missile in 2007. This event dramatically increased the amount of space debris, with thousands of trackable fragments posing hazards to satellites and human spaceflight. The Fengyun 1C debris cloud has become a focal point in discussions about space sustainability and the need for international regulations to prevent the creation of new debris.

Loading next visibility...
Identifier
31364, 1999-025BRU
Orbit
SSO
Country
Flag of CNCN / PRC
Related business
Manufacturer
Unknown
Mission
Spacecraft
Bus & Motor
Unknown
Mass
Unknown
Launch date (UTC)
1999-05-10 (27 years ago)
Launch vehicle
Unknown
Launch site
Taiyaun Space Center, China (TSC)
Object type
Payload
Rocket body
Debris
Shape & HBR
Unknown shape, 0.1 m
Radar Cross Section
Small (<0.1 m²)

Expand to show TLE details & history
Last TLE update: 20 hours ago

TLE from 20 hours ago
0 FENGYUN 1C DEB
1 31364U 99025BRU 25351.29659532  .00004130  00000-0  20794-2 0  9991
2 31364  99.2620 111.1117 0093485 136.1431 224.7212 14.14705445949410
Epoch: 2025-12-17T07:07Z
TLE epoch observation values (Epoch: 2025-12-17T07:07:05.835Z)
Latitude
-0.00002°
Longitude
-81.8311°
Altitude
894.491 km
Speed
7.38 km/s
True Right ascension
07h 24m 26s
True Declination
0° 00' 00"
Sunlit
Object was in full shadow at epoch
Visualization orbit readout
Latitude
Unknown
Longitude
Unknown
Altitude
Unknown
Speed
Unknown
Apparent Right ascension
Unknown
Apparent Declination
Unknown
Sunlit
N/A
Visualization observer readout
Local Sidereal Time
02:06:16
Azimuth
Unknown
Elevation
Unknown
Doppler factor
Unknown
Orbital elements
Apogee altitude
907.99 km
Perigee altitude
773.023 km
Semi-major axis
7,218.644 km
Eccentricity
0.00935
Inclination
99.262°
RAAN
111.1117°
Arg. of periapsis
136.1431°
True anomaly
223.97363°
Mean anomaly
224.7212°
Eccentric anomaly
224.3468°
Mean motion
3.53883 °/min
Orbital period
101.73 mins
BSTAR
0.0020794
Loading maneuver chart data...
Computing Atmospheric mass density...

Documentation

Showing up to 5 results
|